timestamp,surface_pressure_avg,surface_temp_avg,battery_voltage,lat,long
2020-03-17 00:09:01+00:00,206.6548,0.86,12.89,47.84626,-54.09684
2020-03-17 00:19:01+00:00,208.8615,0.8,12.65,47.84626,-54.09684
2020-03-17 00:29:01+00:00,215.5181,0.8,12.65,47.84626,-54.09684
2020-03-17 00:39:01+00:00,216.3931,0.8,12.65,47.84626,-54.09684
2020-03-17 00:49:01+00:00,215.9748,0.8,12.65,47.84626,-54.09684
2020-03-17 00:59:01+00:00,217.3848,0.8,12.65,47.84626,-54.09684
2020-03-17 01:09:01+00:00,217.4781,0.8,12.65,47.84626,-54.09684
2020-03-17 01:19:01+00:00,216.6397,0.79,12.65,47.84626,-54.09684
2020-03-17 01:29:01+00:00,219.1948,0.8,12.65,47.84626,-54.09684
2020-03-17 01:39:01+00:00,220.6331,0.8,12.65,47.84626,-54.09684
2020-03-17 01:49:01+00:00,218.7697,0.88,12.65,47.84626,-54.09684
2020-03-17 01:59:01+00:00,220.1348,0.9,12.65,47.84626,-54.09684
2020-03-17 02:09:01+00:00,227.4865,0.9,12.65,47.84626,-54.09684
2020-03-17 02:19:01+00:00,231.0148,0.88,12.57,47.84626,-54.09684
2020-03-17 02:29:01+00:00,233.4881,0.8,12.57,47.84626,-54.09684
2020-03-17 02:39:01+00:00,237.8998,0.8,12.57,47.84626,-54.09684
2020-03-17 02:49:01+00:00,244.5547,0.73,12.57,47.84626,-54.09684
2020-03-17 02:59:01+00:00,249.4764,0.75,12.57,47.84626,-54.09684
2020-03-17 03:09:01+00:00,254.1147,0.8,12.57,47.84626,-54.09684
2020-03-17 03:19:01+00:00,260.6931,0.87,12.57,47.84626,-54.09684
2020-03-17 03:29:01+00:00,265.5064,0.86,12.57,47.84626,-54.09684
2020-03-17 03:39:01+00:00,270.7914,0.8,12.57,47.84626,-54.09684
2020-03-17 03:49:01+00:00,277.9647,0.9,12.57,47.84626,-54.09684
2020-03-17 03:59:01+00:00,284.9914,0.9,12.57,47.84626,-54.09684
2020-03-17 04:09:01+00:00,288.7231,0.79,12.57,47.84626,-54.09684
2020-03-17 04:19:01+00:00,291.3464,0.78,12.57,47.84626,-54.09684
2020-03-17 04:29:01+00:00,294.3814,0.73,12.57,47.84626,-54.09684
2020-03-17 04:39:01+00:00,296.6564,0.6,12.57,47.84626,-54.09684
2020-03-17 04:49:01+00:00,300.5696,0.5,12.57,47.84626,-54.09684
2020-03-17 04:59:01+00:00,302.2363,0.4,12.57,47.84626,-54.09684
2020-03-17 05:09:01+00:00,302.5247,0.41,12.57,47.84626,-54.09684
2020-03-17 05:19:01+00:00,303.3997,0.4,12.57,47.84626,-54.09684
2020-03-17 05:29:01+00:00,308.7664,0.4,12.57,47.84626,-54.09684
2020-03-17 05:39:01+00:00,312.1562,0.4,12.57,47.84626,-54.09684
2020-03-17 05:49:01+00:00,311.113,0.4,12.57,47.84626,-54.09684
2020-03-17 05:59:01+00:00,310.658,0.4,12.57,47.84626,-54.09684
2020-03-17 06:09:01+00:00,315.243,0.4,12.57,47.84626,-54.09684
2020-03-17 06:19:01+00:00,316.353,0.4,12.49,47.84626,-54.09684
2020-03-17 06:29:01+00:00,313.2964,0.4,12.49,47.84626,-54.09684
2020-03-17 06:39:01+00:00,314.5913,0.4,12.49,47.84626,-54.09684
2020-03-17 06:49:01+00:00,316.4865,0.4,12.49,47.84626,-54.09684
2020-03-17 06:59:01+00:00,312.618,0.45,12.49,47.84626,-54.09684
2020-03-17 07:09:01+00:00,308.218,0.52,12.49,47.84626,-54.09684
2020-03-17 07:19:01+00:00,307.4513,0.6,12.41,47.84626,-54.09684
2020-03-17 07:29:01+00:00,305.7613,0.6,12.41,47.84626,-54.09684
2020-03-17 07:39:01+00:00,300.4114,0.6,12.41,47.84626,-54.09684
2020-03-17 07:49:01+00:00,297.4446,0.6,12.41,47.84626,-54.09684
2020-03-17 07:59:01+00:00,292.5714,0.65,12.41,47.84626,-54.09684
2020-03-17 08:09:01+00:00,284.3664,0.69,12.41,47.84626,-54.09684
2020-03-17 08:19:01+00:00,276.6398,0.69,12.41,47.84626,-54.09684
2020-03-17 08:29:01+00:00,270.4931,0.69,12.41,47.84626,-54.09684
2020-03-17 08:39:01+00:00,260.7681,0.69,12.41,47.84626,-54.09684
2020-03-17 08:49:01+00:00,250.2148,0.68,12.41,47.84626,-54.09684
2020-03-17 08:59:01+00:00,247.0914,0.68,12.41,47.84626,-54.09684
2020-03-17 09:09:01+00:00,241.5681,0.69,12.41,47.84626,-54.09684
2020-03-17 09:19:01+00:00,231.9681,0.65,12.41,47.84626,-54.09684
2020-03-17 09:29:01+00:00,225.9098,0.64,12.41,47.84626,-54.09684
2020-03-17 09:39:01+00:00,223.6797,0.66,12.41,47.84626,-54.09684
2020-03-17 09:49:01+00:00,219.0515,0.67,12.41,47.84626,-54.09684
2020-03-17 09:59:01+00:00,213.2031,0.68,12.41,47.84626,-54.09684
2020-03-17 10:09:01+00:00,208.7015,0.67,12.41,47.84626,-54.09684
2020-03-17 10:19:01+00:00,207.0099,0.68,12.57,47.84626,-54.09684
2020-03-17 10:29:01+00:00,207.1897,0.68,12.57,47.84626,-54.09684
2020-03-17 10:39:01+00:00,205.3215,0.67,12.57,47.84626,-54.09684
2020-03-17 10:49:01+00:00,203.0281,0.68,12.57,47.84626,-54.09684
2020-03-17 10:59:01+00:00,203.0348,0.68,12.57,47.84626,-54.09684
2020-03-17 11:09:01+00:00,203.4265,0.68,12.57,47.84626,-54.09684
2020-03-17 11:19:01+00:00,203.6614,0.67,14.64,47.84626,-54.09684
2020-03-17 11:29:01+00:00,204.3832,0.66,14.64,47.84626,-54.09684
2020-03-17 11:39:01+00:00,204.2765,0.65,14.64,47.84626,-54.09684
2020-03-17 11:49:01+00:00,202.0948,0.65,14.64,47.84626,-54.09684
2020-03-17 11:59:01+00:00,203.2764,0.66,14.64,47.84626,-54.09684
2020-03-17 12:09:01+00:00,206.4032,0.66,14.64,47.84626,-54.09684
2020-03-17 12:19:01+00:00,205.0881,0.68,14.88,47.84626,-54.09684
2020-03-17 12:29:01+00:00,202.2231,0.68,14.88,47.84626,-54.09684
2020-03-17 12:39:01+00:00,204.2165,0.65,14.88,47.84626,-54.09684
2020-03-17 12:49:01+00:00,207.0048,0.6,14.88,47.84626,-54.09684
2020-03-17 12:59:01+00:00,207.7064,0.6,14.88,47.84626,-54.09684
2020-03-17 13:09:01+00:00,208.188,0.6,14.88,47.84626,-54.09684
2020-03-17 13:19:01+00:00,209.7515,0.6,14.96,47.84626,-54.09684
2020-03-17 13:29:01+00:00,212.6848,0.6,14.96,47.84626,-54.09684
2020-03-17 13:39:01+00:00,214.318,0.6,14.96,47.84626,-54.09684
2020-03-17 13:49:01+00:00,212.9564,0.6,14.96,47.84626,-54.09684
2020-03-17 13:59:01+00:00,212.4881,0.6,14.96,47.84626,-54.09684
2020-03-17 14:09:01+00:00,213.3965,0.6,14.96,47.84626,-54.09684
2020-03-17 14:19:01+00:00,213.5915,0.6,14.88,47.84626,-54.09684
2020-03-17 14:29:01+00:00,212.6481,0.6,14.88,47.84626,-54.09684
2020-03-17 14:39:01+00:00,212.9566,0.66,14.88,47.84626,-54.09684
2020-03-17 14:49:01+00:00,215.7215,0.7,14.88,47.84626,-54.09684
2020-03-17 14:59:01+00:00,217.708,0.7,14.88,47.84626,-54.09684
2020-03-17 15:09:01+00:00,217.8798,0.7,14.88,47.84626,-54.09684
2020-03-17 15:19:01+00:00,222.1397,0.7,14.8,47.84626,-54.09684
2020-03-17 15:29:01+00:00,231.8365,0.7,14.8,47.84626,-54.09684
2020-03-17 15:39:01+00:00,236.6164,0.7,14.8,47.84626,-54.09684
2020-03-17 15:49:01+00:00,237.8831,0.72,14.8,47.84626,-54.09684
2020-03-17 15:59:01+00:00,240.9231,0.74,14.8,47.84626,-54.09684
2020-03-17 16:09:01+00:00,249.0198,0.77,14.8,47.84626,-54.09684
2020-03-17 16:19:01+00:00,254.1664,0.78,14.48,47.84626,-54.09684
2020-03-17 16:29:01+00:00,257.0264,0.78,14.48,47.84626,-54.09684
2020-03-17 16:39:01+00:00,262.9281,0.74,14.48,47.84626,-54.09684
2020-03-17 16:49:01+00:00,268.9148,0.7,14.48,47.84626,-54.09684
2020-03-17 16:59:01+00:00,268.9632,0.79,14.48,47.84626,-54.09684
2020-03-17 17:09:01+00:00,270.2581,0.8,14.48,47.84626,-54.09684
2020-03-17 17:19:01+00:00,276.5831,0.8,14.56,47.84626,-54.09684
2020-03-17 17:29:01+00:00,279.6497,0.6,14.56,47.84626,-54.09684
2020-03-17 17:39:01+00:00,279.3264,0.6,14.56,47.84626,-54.09684
2020-03-17 17:49:01+00:00,281.8331,0.59,14.56,47.84626,-54.09684
2020-03-17 17:59:01+00:00,282.7681,0.5,14.56,47.84626,-54.09684
2020-03-17 18:09:01+00:00,281.4864,0.5,14.56,47.84626,-54.09684
2020-03-17 18:19:01+00:00,282.5697,0.5,14.32,47.84626,-54.09684
2020-03-17 18:29:01+00:00,285.663,0.5,14.32,47.84626,-54.09684
2020-03-17 18:39:01+00:00,286.0747,0.4,14.32,47.84626,-54.09684
2020-03-17 18:49:01+00:00,284.0964,0.4,14.32,47.84626,-54.09684
2020-03-17 18:59:01+00:00,284.0481,0.4,14.32,47.84626,-54.09684
2020-03-17 19:09:01+00:00,287.1881,0.4,14.32,47.84626,-54.09684
2020-03-17 19:19:01+00:00,289.1897,0.4,14.16,47.84626,-54.09684
2020-03-17 19:29:01+00:00,286.343,0.4,14.16,47.84626,-54.09684
2020-03-17 19:39:01+00:00,284.728,0.4,14.16,47.84626,-54.09684
2020-03-17 19:49:01+00:00,287.2597,0.4,14.16,47.84626,-54.09684
2020-03-17 19:59:01+00:00,288.703,0.4,14.16,47.84626,-54.09684
2020-03-17 20:09:01+00:00,283.2414,0.4,14.16,47.84626,-54.09684
2020-03-17 20:19:01+00:00,275.4681,0.38,13.92,47.84626,-54.09684
2020-03-17 20:29:01+00:00,273.5264,0.39,13.92,47.84626,-54.09684
2020-03-17 20:39:01+00:00,273.4297,0.38,13.92,47.84626,-54.09684
2020-03-17 20:49:01+00:00,267.4664,0.38,13.92,47.84626,-54.09684
2020-03-17 20:59:01+00:00,258.0447,0.39,13.92,47.84626,-54.09684
2020-03-17 21:09:01+00:00,256.248,0.39,13.92,47.84626,-54.09684
2020-03-17 21:19:01+00:00,251.3581,0.39,13.68,47.84626,-54.09684
2020-03-17 21:29:01+00:00,240.6147,0.39,13.68,47.84626,-54.09684
2020-03-17 21:39:01+00:00,234.9914,0.4,13.68,47.84626,-54.09684
2020-03-17 21:49:01+00:00,238.6698,0.4,13.68,47.84626,-54.09684
2020-03-17 21:59:01+00:00,232.6114,0.4,13.68,47.84626,-54.09684
2020-03-17 22:09:01+00:00,221.3631,0.4,13.68,47.84626,-54.09684
2020-03-17 22:19:01+00:00,220.0464,0.4,13.29,47.84626,-54.09684
2020-03-17 22:29:01+00:00,221.4514,0.4,13.29,47.84626,-54.09684
2020-03-17 22:39:01+00:00,214.8898,0.4,13.29,47.84626,-54.09684
2020-03-17 22:49:01+00:00,206.4698,0.4,13.29,47.84626,-54.09684
2020-03-17 22:59:01+00:00,207.4815,0.4,13.29,47.84626,-54.09684
2020-03-17 23:09:01+00:00,211.0931,0.4,13.29,47.84626,-54.09684
2020-03-17 23:19:01+00:00,209.5098,0.4,12.89,47.84626,-54.09684
2020-03-17 23:29:01+00:00,206.7615,0.4,12.89,47.84626,-54.09684
2020-03-17 23:39:01+00:00,209.4698,0.4,12.89,47.84626,-54.09684
2020-03-17 23:49:01+00:00,210.0315,0.4,12.89,47.84626,-54.09684
2020-03-17 23:59:01+00:00,207.6681,0.4,12.89,47.84626,-54.09684
